Regional Weather Roundup
Issued by NWS Wakefield, VA

Home | Current Version | Previous Version | Text Only | Print | Product List | Glossary Off
Versions: 1 2 3 4 5 6 7 8 9 10 11 12 13 14 15 16 17 18 19 20 21 22 23 24 25 26 27 28 29 30 31 32 33 34 35 36 37 38 39 40 41 42 43 44

892
ASUS41 KAKQ 231016
RWRAKQ

REGIONAL WEATHER ROUNDUP
NATIONAL WEATHER SERVICE WAKEFIELD VA
500 AM EST TUE JAN 23 2018

Note: "fair" indicates few or no clouds below 12,000 feet with no
significant weather and/or obstructions to visibility. * = Denotes
station may not report precipitation (e.g., rain,snow,etc.),
thunder or fog.

VAZ042-051-052>054-056-231100-
NORTHERN VIRGINIA

CITY           SKY/WX    TMP DP  RH WIND       PRES   REMARKS
WASH NATIONAL  LGT RAIN  54  52  93 S14       29.75F
DULLES         LGT RAIN  53  53 100 SE3       29.73F
FORT BELVOIR   LGT RAIN  55  52  88 SE8       29.73F
QUANTICO       NOT AVBL
FREDERICKSBRG* LGT RAIN  61  58  90 S13G22    29.73F
STAFFORD*      RAIN      60  60 100 S9        29.77F
WARRENTON      DRIZZLE   52  47  84 N3        29.71F
CULPEPER*      DRIZZLE   51  49  93 CALM      29.71F
MANASSAS*      LGT RAIN  56  53  90 S8        29.72F
LEESBURG*      RAIN      50  50 100 CALM      29.74F
WINCHESTER     RAIN      46  46 100 CALM      29.70F
FRONT ROYAL*   CLOUDY    50  50 100 E5        29.68F
LURAY*         RAIN      52  52 100 CALM      29.66F
$$

VAZ048-049-060>072-079>083-231100-
CENTRAL AND SOUTH CENTRAL VIRGINIA

CITY           SKY/WX    TMP DP  RH WIND       PRES   REMARKS
RICHMOND       LGT RAIN  60  58  92 S16       29.78F
CHESTERFIELD*  NOT AVBL
PETERSBURG*    LGT RAIN  59  55  88 S7        29.80F
HANOVER        RAIN      60  58  92 S16G24    29.77F FOG
TAPPAHANNOCK*  FAIR      60  58  91 S13       29.80F
QUINTON*       CLOUDY    60  60 100 S8        29.79F
CHARLOTTSVILLE RAIN      51  50  96 CALM      29.69F FOG
GORDONSVILLE*  CLOUDY    51  51 100 CALM      29.69F FOG
ORANGE*        LGT RAIN  52  52 100 CALM      29.71F
LOUISA*        LGT RAIN  59  57  94 SE12      29.75F
BUMPASS*       CLOUDY    59  58  95 SE7       29.73F
FARMVILLE*     LGT RAIN N/A N/A N/A S13G20    29.69F
CREWE*         CLOUDY    60  60 100 S13G22    29.73F
FORT PICKETT*  CLOUDY    60  60 100 S14G28    29.76F
CHASE CITY*    CLOUDY    60  60 100 SE13G22   29.71F
CLARKSVILLE*   CLOUDY    61  61 100 S13G23    29.73F
SOUTH HILL*    CLOUDY    59  59 100 S10       29.82F
LAWRENCEVILLE* CLOUDY    60  58  95 S8        29.78F
EMPORIA*       RAIN      59  57  94 SE10      29.83F
$$

VAZ088>098-231100-
SOUTHEAST VIRGINIA

CITY           SKY/WX    TMP DP  RH WIND       PRES   REMARKS
NORFOLK        FAIR      61  57  87 S14       29.87F
VIRGINIA BEACH CLOUDY    58  54  86 S7        29.88F
NORFOLK NAVAL  MOCLDY    61  56  83 S13G18    29.88F
WEST POINT*    MOCLDY    60  56  84 S13       29.83F
SALUDA*        FAIR      56  56  97 S7        29.85S
NEWPORT NEWS   FAIR      59  55  87 MISG      29.86F
LANGLEY AFB    MOCLDY    57  56  97 S12       29.87F
FORT EUSTIS    FAIR      59  55  89 S7        29.83F
WILLIAMSBURG*  FAIR      61  57  88 S9        29.86F
HR EXEC AP*    FAIR      59  56  89 S9        29.88F
FRANKLIN*      FAIR      58  56  92 S8        29.86F
US460-WAKEFLD  MOCLDY    62  58  86 S10G16    29.83F
$$

VAZ020-022-025-037-045-231100-
WEST CENTRAL AND SOUTHWEST VIRGINIA

CITY           SKY/WX    TMP DP  RH WIND       PRES   REMARKS
STAUNTON*      RAIN      52  51  95 SW6       29.69F
WAYNESBORO*    CLOUDY    51  50  99 SE3       29.68F
HOT SPRINGS VA DRIZZLE   50  50 100 SW10G18   29.71F
LYNCHBURG      CLOUDY    56  54  93 SW9G18    29.71S
DANVILLE       MOCLDY    61  60  97 S8G17     29.74F
SOUTH BOSTON*  CLOUDY    61  60  96 S9        29.74S
MARTINSVILLE   CLOUDY    57  56  95 SW5       29.75F
ROANOKE        FOG       50  50 100 NE3       29.72F VSB 3/4
BLACKSBURG     MOCLDY    54  51  92 S7        29.74F
DUBLIN*        CLOUDY    52  51  98 CALM      29.72F
MARION*        CLOUDY    55  48  77 W16G25    29.75R
HILLSVILLE*    CLOUDY    52  51  95 SW15G26   29.72F
RICHLANDS*     PTSUNNY   50  45  84 SW15G28   29.73R
WISE*          FAIR      48  43  81 SW21G28   29.73R
ABINGDON*      CLOUDY    55  47  74 W14G22    29.74S
$$

MDZ021>025-VAZ099-100-231100-
SOUTHERN MARYLAND AND THE DELMARVA PENINSULA

CITY           SKY/WX    TMP DP  RH WIND       PRES   REMARKS
PATUXENT RIVER NOT AVBL
BAY BRIDGE APT MOCLDY    52  50  93 S13       29.79F
LEONARDTOWN    FAIR      55  54  94 S8        29.81F
DOVER          MOCLDY    56  56 100 S12       29.81F
GEORGETOWN     FAIR      58  53  84 S10G22    29.84F
EASTON         MOCLDY    58  54  86 SW16G22   29.84F
CAMBRIDGE      CLOUDY    54  52  94 S13G18    29.82F
SALISBURY      FAIR      59  55  87 S13       29.85F
OCEAN CITY     CLOUDY    47  47 100 VRB6      29.88F
WALLOPS ISLAND MOCLDY    49  49 100 S17       29.88F
ACCOMACK*      MOCLDY    54  53  96 S15       29.87F
$$

NCZ012>017-030>032-231100-
NORTH CENTRAL AND EASTERN NORTH CAROLINA

CITY           SKY/WX    TMP DP  RH WIND       PRES   REMARKS
ROANOKE RAPIDS PTSUNNY   61  59  94 S8G16     29.82F
RALEIGH        LGT RAIN  62  60  93 S17G28    29.77F
ELIZABETH CITY FAIR      61  61 100 S14G21    29.91F
AHOSKIE*       FAIR      60  58  92 S10G16    29.86F
EDENTON*       FAIR      58  56  94 S9        29.91F
CURRITUCK*     FAIR      59  57  93 S7        29.91F
KILL DEVIL HLS FAIR     N/A N/A N/A S7        29.92F
MANTEO         FAIR      53  53  99 S15       29.94F
CAPE HATTERAS  NOT AVBL
TARBORO*       NOT AVBL
GOLDSBORO      MOCLDY    63  59  85 S13G22    29.84F
WASHINGTON     FAIR      62  58  89 S6        29.90F
GREENVILLE     FAIR      63  59  88 S20G29    29.89F
NEW BERN       FAIR      64  60  87 S14G23    29.92F
WILMINGTON     FAIR      65  61  87 S15G22    29.92F
$$

VAZ048-231100-
ELSEWHERE

CITY           SKY/WX    TMP DP  RH WIND       PRES   REMARKS
HARRISBURG PA  HVY RAIN  44  44 100 E9        29.75F FOG
BALTIMORE      CLOUDY    50  49  96 SE6       29.76F
ANNAPOLIS      CLOUDY    48  47  96 S12       29.78F
ANDREWS AFB    CLOUDY    57  54  90 S18       29.75F
PHILADELPHIA   CLOUDY    53  49  86 S10G20    29.81F
HENDERSON NC   RAIN      59  57  94 S12G17    29.75F
GREENSBORO     LGT RAIN  60  60 100 SW14G23   29.75F
ROCKY MOUNT    CLOUDY    64  60  87 S12G24    29.83F
$$

VAZ100-231100-
MARINE

STATION/POSITION TIME  TEMP    WIND        PRES    WAVE   SWELL
                       AIR SEA DIR/SP/G            HT/PER HT/PER
                 (UTC) (F)     (DEG/KT/KT) (MB)    (FT/S) (FT/S)
BRANDYWINE LGT   0942   43     180/ 20/ 21 1011.0F
CAPE MAY NJ      0948   47 35  160/ 12/ 17 1010.6F
LEWES DE         0942   53 35  180/  6/  9 1010.5F
15NM E FENWICK I 0950   48 38  150/ 17/ 19 1011.9F   2/ 3
OCEAN-CITY-INLET 0942   45 38  230/ 11/ 12 1012.4F
WACHAPREAGUE VA  0942   47 43  180/  6/  8 1011.9F
THOMAS POINT MD  1000   43 34  170/ 17/ 17   N/A
COVE POINT MD    0942   40     180/ 16/ 17 1010.0F
SOLOMONS ISLAND  0942      35  180/ 12/ 15 1008.9F
BISHOPS HEAD MD  0942   45 38  170/ 15/ 16 1010.5F
PINEY POINT MD   0942          180/ 12/ 14   N/A
CAMBRIDGE MD     0942   54 35              1010.5F
LEWISETTA VA     0942   57 38  200/ 15/ 18 1009.5F
RAPPAHANNOCK LGT 0942          160/ 19/ 20 1011.6F
YORK RVR RNG VA  0942   51     200/ 19/ 19 1011.9F
YORKTOWN VA      0942   59 37  190/ 10/ 14 1010.9F
DOMINION TERM VA 0942   50     180/  9/ 10 1011.9F
KIPTOPEKE VA     0942      37  150/ 13/ 15   N/A
CAPE HENRY VA    0942   58     170/  8/ 12   N/A
WILLOUBY STN VA  0942          190/ 13/ 14 1011.7S
S CRANEY ISL VA  0942   55     190/  8/ 10 1011.7F
CAPE HENRY BUOY  1000      40                N/A     2/ 3
CAPE CHARLES BUO 0951      40                N/A     2/10
64NM E OF VA BCH 0950   61 59  200/ 14/ 14 1014.6F   3/ 4
DUCK PIER NC     0942   62 41  170/ 15/ 17 1012.4F
44100 DUCK FRF   0945      39                N/A     1/ 9
44056 DUCK FRF   1000      42                N/A     1/10
OREGON INLET NC  0942   53 43  160/ 12/ 16 1013.8F
HATTERAS NC      0942   66 53  180/ 11/ 19 1014.1F
DIAMOND SHLS NC  1000   71     180/ 23/ 29 1015.1
CAPE LOOKOUT NC  1000          180/ 11/ 11 1014.7F
$$




USA.gov is the U.S. government's official web portal to all federal, state and local government web resources and services.